sat.trackr.live / text

‹ back to catalog

HULIANWANG DIGUI-139

NORAD 67437 · 2026-007C

PAYLOAD ACTIVE UNKNOWN

§ Identity

Operator
Country
PRC
Launch date
2026-01-13
Launch site
WSC
Launch vehicle
Mass (kg)
RCS (m²)

External: N2YO · Heavens-Above · Gunter

§ Orbital elements

Epoch: 2026-09-20T22:37:16.339008Z

Period
108.33 min
Inclination
50.0016°
Eccentricity
0.0000223
Mean motion
13.29330592 rev/d
Perigee alt
1,149.1 km
Apogee alt
1,149.5 km
Semi-major
7,527.4 km
B*
4.4091e-5
RAAN
102.4185°
Arg perigee
11.4384°
Mean anomaly
348.6493°
Rev number
3,352

§ Raw data

HULIANWANG DIGUI-1391 67437U 26007C   26263.94255022 -.00000104  00000+0  44091-4 0  99972 67437  50.0016 102.4185 0000223  11.4384 348.6493 13.29330592 33527

JSON: /api/v1/satellites/67437 · /tle

For live sub-satellite position, see the globe view (requires WebGL).

§ Visibility from observer

Set your observer location to see the next 7 days of passes ≥ 10°. The values pass through the URL so the page stays shareable.

No JS? Fill the form by hand. The geolocation button needs JavaScript.